St. Thomas, VI

9:49 PM AST on May 22, 2017 (GMT -0400)
King

Weather History for TIST - October, 2013

Change the Weather History Date:

Saturday, October 5, 2013

  Actual Average Record
Temperature  
Mean Temperature 82 °F 83 °F  
Max Temperature 87 °F 89 °F 96 °F (1994)
Min Temperature 76 °F 77 °F 73 °F (1983)
Degree Days  
Heating Degree Days 0 0  
Month to date heating degree days 0 0  
Since 1 July heating degree days 0 0  
Cooling Degree Days 17 18  
Month to date cooling degree days 101 90  
Year to date cooling degree days 4580 4649  
Growing Degree Days 31 (Base 50)    
Moisture  
Dew Point 77 °F    
Average Humidity 85    
Maximum Humidity 97    
Minimum Humidity 72    
Precipitation  
Precipitation 0.45 in 0.17 in 6.61 in (2010)
Month to date precipitation 0.53 0.81  
Year to date precipitation 34.96 26.54  
Sea Level Pressure  
Sea Level Pressure 29.94 in    
Wind  
Wind Speed 3 mph (SE)    
Max Wind Speed 20 mph    
Max Gust Speed 22 mph    
Visibility 9 miles    
Events Rain    
T = Trace of Precipitation, MM = Missing Value Source: NWS Daily Summary

Daily Weather History Graph

Daily Weather History Graph

Search for Another Location

Airport or City:

Trip Planner

Search our weather history database for the weather conditions in past years. The results will help you decide how hot, cold, wet, or windy it might be!

Date:

Astronomy

Oct. 05, 2013 Rise Set
Actual Time 6:11 AM AST 6:04 PM AST
Civil Twilight 5:49 AM AST 6:26 PM AST
Nautical Twilight 5:24 AM AST 6:52 PM AST
Astronomical Twilight 4:58 AM AST 7:17 PM AST
Moon 6:36 AM AST (10/5) 6:34 PM AST (10/5)
Length of Visible Light 12h 37m
Length of Day
11h 53m
New Moon, 0% of the Moon is Illuminated
Oct 5
New Moon
Oct 11
First Quarter
Oct 18
Full
Oct 26
Last Quarter
Nov 3
New

Hourly Weather History & Observations

Time (AST) Temp. Heat Index Dew Point Humidity Pressure Visibility Wind Dir Wind Speed Gust Speed Precip Events Conditions
12:19 AM 78.8 °F - 77.0 °F 94% 30.00 in 10.0 mi NNW 6.9 mph - 0.14 in Rain Heavy Rain
12:29 AM 77.0 °F - 77.0 °F 100% 29.99 in 10.0 mi North 4.6 mph - 0.36 in Rain Heavy Rain
12:53 AM 77.0 °F - 77.0 °F 100% 29.98 in 10.0 mi SSE 6.9 mph - 0.45 in Rain Light Rain
1:53 AM 77.0 °F - 77.0 °F 100% 29.94 in 10.0 mi East 3.5 mph - 0.00 in   Partly Cloudy
2:53 AM 78.1 °F - 75.0 °F 90% 29.90 in 10.0 mi SE 3.5 mph - 0.00 in Rain Light Rain
3:53 AM 79.0 °F - 75.0 °F 88% 29.90 in 10.0 mi North 3.5 mph - 0.00 in   Clear
4:53 AM 78.1 °F - 75.0 °F 90% 29.90 in 10.0 mi Calm Calm - N/A   Clear
5:53 AM 77.0 °F - 75.0 °F 94% 29.91 in 10.0 mi Calm Calm - N/A   Clear
6:15 AM 75.2 °F - 75.2 °F 100% 29.92 in 10.0 mi Calm Calm - N/A   Partly Cloudy
6:53 AM 78.1 °F - 77.0 °F 96% 29.93 in 10.0 mi Calm Calm - N/A   Clear
7:53 AM 82.0 °F 89.4 °F 75.9 °F 82% 29.95 in 10.0 mi Calm Calm - N/A   Clear
8:53 AM 82.9 °F 90.8 °F 75.9 °F 79% 29.97 in 10.0 mi Calm Calm - N/A   Clear
9:17 AM 84.2 °F 92.3 °F 75.2 °F 74% 29.97 in 2.0 mi Calm Calm - N/A   Haze
9:27 AM 84.2 °F 92.3 °F 75.2 °F 74% 29.97 in 10.0 mi Calm Calm - N/A   Clear
9:53 AM 84.9 °F 95.3 °F 77.0 °F 77% 29.98 in 10.0 mi Calm Calm - N/A   Clear
10:53 AM 84.9 °F 95.3 °F 77.0 °F 77% 29.97 in 10.0 mi Calm Calm - N/A   Clear
11:53 AM 84.9 °F 95.3 °F 77.0 °F 77% 29.95 in 10.0 mi SW 3.5 mph - N/A   Clear
12:53 PM 84.9 °F 95.3 °F 77.0 °F 77% 29.93 in 10.0 mi South 3.5 mph - N/A   Clear
1:53 PM 86.0 °F 96.9 °F 77.0 °F 74% 29.91 in 10.0 mi South 4.6 mph - N/A   Clear
2:53 PM 87.1 °F 98.8 °F 77.0 °F 72% 29.90 in 10.0 mi SSW 4.6 mph - N/A   Clear
3:53 PM 86.0 °F 96.9 °F 77.0 °F 74% 29.89 in 10.0 mi SSW 4.6 mph - N/A   Partly Cloudy
4:53 PM 84.9 °F 95.3 °F 77.0 °F 77% 29.89 in 10.0 mi SSW 4.6 mph - N/A   Clear
5:53 PM 84.0 °F 93.7 °F 77.0 °F 79% 29.89 in 10.0 mi South 3.5 mph - N/A   Partly Cloudy
6:53 PM 84.0 °F 94.8 °F 78.1 °F 82% 29.90 in 10.0 mi Calm Calm - N/A   Mostly Cloudy
7:29 PM 84.2 °F 94.1 °F 77.0 °F 79% 29.91 in 10.0 mi Calm Calm - N/A   Mostly Cloudy
7:53 PM 82.9 °F 92.8 °F 78.1 °F 85% 29.92 in 10.0 mi East 3.5 mph - N/A   Clear
8:53 PM 82.0 °F 91.0 °F 78.1 °F 88% 29.94 in 10.0 mi East 3.5 mph - N/A   Mostly Cloudy
9:05 PM 82.4 °F 90.9 °F 77.0 °F 84% 29.94 in 10.0 mi Calm Calm - N/A   Scattered Clouds
9:53 PM 82.0 °F 90.2 °F 77.0 °F 85% 29.94 in 10.0 mi Calm Calm - N/A   Clear
10:53 PM 81.0 °F 87.9 °F 77.0 °F 88% 29.95 in 2.5 mi ENE 3.5 mph - N/A   Clear
11:00 PM 80.6 °F 87.1 °F 77.0 °F 89% 29.95 in 10.0 mi ENE 3.5 mph - N/A   Clear
11:53 PM 81.0 °F 87.3 °F 75.9 °F 85% 29.95 in 3.0 mi East 4.6 mph - N/A   Haze